#timestamp,LO_Frequency,Hit,StdDev 
1460250015.6,286047000.5,N
1460250035.4,286047002.8,N
1460250055.2,286047002.7,N
1460250075.1,286047002.6,N
1460250076.0,286047002.6,N
1460250095.8,286047004.0,N
1460250115.6,286047000.1,N
1460250135.4,286047004.2,N
1460250155.3,286046999.7,N
1460250175.1,286047001.0,N
1460250195.8,286046998.4,N
1460250215.7,286046998.2,N
1460250235.5,286046998.2,N
1460250255.3,286046998.4,N
1460250275.2,286047001.1,N
1460250295.9,286046998.9,N
1460250315.7,286047000.7,N
1460250335.6,286047000.3,N
1460250355.4,286047000.6,N
1460250375.2,286046999.8,N
1460250395.1,286046999.7,N
1460250396.0,286046999.7,N
1460250415.8,286047002.1,N
1460250435.6,286047000.4,N
1460250455.5,286047000.5,N
1460250475.3,286046999.4,N
1460250495.1,286046999.1,N
1460250515.8,286046998.7,N
1460250535.7,286046999.1,N
1460250555.5,286046998.6,N
1460250575.3,286046997.1,N
1460250595.2,286046999.4,N
1460250615.0,286046997.0,N
1460250615.9,286046997.0,N
1460250635.7,286046999.4,N
1460250655.6,286046995.0,N
1460250675.4,286046998.0,N
1460250695.2,286046996.9,N
1460250715.1,286047000.8,N
1460250716.0,286047000.8,N
1460250735.8,286046998.7,N
1460250755.6,286046996.6,N
1460250775.5,286046994.9,Y
1460250795.3,286046996.6,P
1460250815.1,286046996.5,N
1460250835.9,286046999.6,N
1460250855.7,286046996.9,N
1460250875.5,286046997.8,N
1460250895.4,286046999.6,N
1460250915.2,286046998.4,N
1460250935.0,286047000.9,N
1460250935.9,286047000.9,N
1460250955.8,286046999.9,N
1460250975.6,286047002.5,N
1460250995.4,286047004.4,N
1460251015.2,286047005.1,N
1460251035.1,286047006.0,N
1460251036.0,286047006.0,N
1460251055.8,286047005.8,N
1460251075.6,286047002.5,N
1460251095.5,286047000.4,N
1460251115.3,286047004.7,N
1460251135.1,286047003.2,N
1460251155.9,286047005.5,N
1460251175.7,286047002.0,N
1460251195.5,286047001.6,N
1460251215.4,286047003.0,N
1460251235.2,286047007.6,N
1460251255.0,286047005.4,N
1460251255.9,286047005.4,N
1460251275.8,286047005.5,N
1460251295.6,286047005.8,N
1460251315.4,286047002.9,N
1460251335.3,286047001.4,N
1460251355.1,286047006.1,N
1460251356.0,286047006.1,N
1460251375.8,286047010.8,Y
1460251395.7,286047005.6,P
1460251415.5,286047005.7,P
1460251435.3,286047005.6,P
1460251455.2,286047005.4,Y
1460251475.9,286046998.3,P
1460251495.7,286047002.7,N
1460251515.6,286047002.6,N
1460251535.4,286047001.1,N
1460251555.2,286046998.9,N
1460251575.0,286046998.2,N
1460251575.9,286046998.2,N
1460251595.8,286047000.6,N
1460251615.6,286047000.7,N
1460251635.4,286047000.1,N
1460251655.3,286046998.9,N
1460251675.1,286046997.3,N
1460251695.8,286046999.5,N
1460251715.7,286046997.8,N
1460251735.5,286046995.3,N
1460251755.3,286046994.5,N
1460251775.2,286046994.1,N
1460251795.9,286046990.4,Y
1460251815.7,286046990.7,P
1460251835.6,286046994.7,N
1460251855.4,286046992.0,N
1460251875.2,286046991.1,N
1460251895.1,286046987.4,Y
1460251896.0,286046987.4,P
1460251915.8,286046991.8,N
1460251935.6,286046994.6,N
1460251955.5,286046993.8,N
1460251975.3,286046996.0,N
1460251995.1,286046995.2,N
1460252015.8,286046994.0,N
1460252035.7,286046994.5,N
1460252055.5,286046998.0,N
1460252075.3,286046995.0,N
1460252095.2,286046996.0,N
1460252115.9,286046994.1,N
1460252135.7,286046994.1,N
1460252155.6,286046996.8,N
1460252175.4,286046997.4,N
1460252195.2,286046996.4,N
1460252215.1,286046992.1,Y
1460252216.0,286046992.1,P
1460252235.8,286046999.1,N
1460252255.6,286046996.7,N
1460252275.5,286046999.6,N
1460252295.3,286047000.6,N
1460252315.1,286046999.7,N
1460252335.9,286047000.6,N
1460252355.7,286046999.9,N
1460252375.5,286046999.0,N
1460252395.3,286047002.3,N
1460252415.2,286047000.0,N
1460252435.0,286047002.3,N
1460252435.9,286047002.3,N
1460252455.7,286046999.9,N
1460252475.6,286046999.8,N
1460252495.4,286047002.6,N
1460252515.2,286047002.6,N
1460252535.1,286047003.6,N
1460252536.0,286047003.6,N
1460252555.8,286047003.5,N
1460252575.6,286047004.0,N
1460252595.5,286047001.3,N
1460252615.3,286047002.1,N
1460252635.1,286047000.3,N
1460252655.9,286047003.2,N
1460252675.7,286047005.2,N
1460252695.5,286047007.4,N
1460252715.3,286047005.7,N
1460252735.2,286047003.3,N
1460252755.0,286047004.6,N
1460252755.9,286047004.6,N
1460252775.8,286047008.0,Y
1460252795.6,286047006.4,P
1460252815.4,286047007.3,P
1460252835.3,286047009.6,P
1460252855.1,286047008.6,Y
1460252856.0,286047008.6,P
1460252875.8,286047003.2,N
1460252895.7,286047003.9,N
1460252915.5,286047006.8,Y
1460252935.3,286047003.2,P
1460252955.2,286047002.1,N
1460252975.9,286047002.7,N
1460252995.7,286047002.8,N
1460253015.6,286047003.7,Y
1460253035.4,286047001.2,P
1460253055.2,286046997.4,N
1460253075.1,286046999.1,N
1460253076.0,286046999.1,N
1460253095.8,286046996.7,N
1460253115.6,286046999.0,N
1460253135.4,286046997.2,N
1460253155.3,286046996.9,N
1460253175.1,286046996.4,N
1460253195.9,286046993.6,Y
1460253215.7,286046994.8,P
1460253235.5,286046992.0,P
1460253255.3,286046989.3,P
1460253275.2,286046988.1,Y
1460253295.0,286046994.6,P
1460253295.9,286046994.6,P
1460253315.7,286046994.0,P
1460253335.6,286046993.6,Y
1460253355.4,286046998.6,P
1460253375.3,286046999.0,N
1460253395.1,286046997.4,N
1460253396.0,286046997.4,N
1460253415.8,286046998.3,N
1460253435.6,286046996.6,N
1460253455.5,286046996.5,N
1460253475.3,286046995.3,Y
1460253495.1,286046999.9,P
1460253515.9,286046998.9,N
1460253535.7,286046999.5,N
1460253555.5,286047001.1,N
1460253575.4,286046996.9,N
1460253595.2,286046997.2,N
